Time,TemperatureF,DewpointF,PressureIn,WindDirection,WindDirectionDegrees,WindSpeedMPH,WindSpeedGustMPH,Humidity,HourlyPrecipIn,Conditions,Clouds,dailyrainin,SolarRadiationWatts/m^2,SoftwareType,DateUTC
2015-05-25 00:02:00,53.9,50.4,30.03,NE,37,0.0,0.0,88,0.00,,,0.00,0,WeatherCatV1.24B11,2015-05-24 22:02:00,
2015-05-25 00:07:00,53.9,50.4,30.03,NE,37,1.0,1.0,88,0.00,,,0.00,0,WeatherCatV1.24B11,2015-05-24 22:07:00,
2015-05-25 00:12:00,53.7,50.2,30.03,NE,37,0.0,1.0,88,0.00,,,0.00,0,WeatherCatV1.24B11,2015-05-24 22:12:00,
2015-05-25 00:17:00,53.5,50.0,30.03,NE,37,0.0,0.0,88,0.00,,,0.00,0,WeatherCatV1.24B11,2015-05-24 22:17:00,
2015-05-25 00:22:00,53.5,50.3,30.03,NE,36,0.0,0.0,89,0.00,,,0.00,0,WeatherCatV1.24B11,2015-05-24 22:22:00,
2015-05-25 00:27:00,53.5,50.3,30.03,NE,37,0.0,0.0,89,0.00,,,0.00,0,WeatherCatV1.24B11,2015-05-24 22:27:00,
2015-05-25 00:32:00,53.4,50.2,30.02,NE,37,0.0,1.0,89,0.00,,,0.00,0,WeatherCatV1.24B11,2015-05-24 22:32:00,
2015-05-25 00:37:00,53.2,50.0,30.02,NE,37,0.0,0.0,89,0.00,,,0.00,0,WeatherCatV1.24B11,2015-05-24 22:37:00,
2015-05-25 00:42:00,53.1,50.2,30.02,NE,37,0.0,0.0,90,0.00,,,0.00,0,WeatherCatV1.24B11,2015-05-24 22:42:00,
2015-05-25 00:47:00,53.1,50.2,30.02,NE,36,0.0,0.0,90,0.00,,,0.00,0,WeatherCatV1.24B11,2015-05-24 22:47:00,
2015-05-25 00:52:00,53.1,50.2,30.01,NE,37,0.0,0.0,90,0.00,,,0.00,0,WeatherCatV1.24B11,2015-05-24 22:52:00,
2015-05-25 00:57:00,53.1,49.9,30.01,NE,37,0.0,0.0,89,0.00,,,0.00,0,WeatherCatV1.24B11,2015-05-24 22:57:00,
2015-05-25 01:07:00,53.2,50.0,30.01,NE,37,0.0,1.0,89,0.00,,,0.00,0,WeatherCatV1.24B11,2015-05-24 23:07:00,
2015-05-25 01:12:00,53.2,50.0,30.01,NE,37,1.0,1.0,89,0.00,,,0.00,0,WeatherCatV1.24B11,2015-05-24 23:12:00,
2015-05-25 01:17:00,53.1,49.9,30.01,NE,37,0.0,0.0,89,0.00,,,0.00,0,WeatherCatV1.24B11,2015-05-24 23:17:00,
2015-05-25 01:22:00,53.1,49.9,30.01,NE,37,0.0,0.0,89,0.00,,,0.00,0,WeatherCatV1.24B11,2015-05-24 23:22:00,
2015-05-25 01:27:00,53.1,49.9,30.01,NE,37,0.0,0.0,89,0.00,,,0.00,0,WeatherCatV1.24B11,2015-05-24 23:27:00,
2015-05-25 01:32:00,53.1,49.6,30.01,NE,37,0.0,0.0,88,0.00,,,0.00,0,WeatherCatV1.24B11,2015-05-24 23:32:00,
2015-05-25 01:37:00,52.9,49.8,30.01,NE,37,0.0,0.0,89,0.00,,,0.00,0,WeatherCatV1.24B11,2015-05-24 23:37:00,
2015-05-25 01:42:00,52.7,49.5,30.01,NE,37,0.0,1.0,89,0.00,,,0.00,0,WeatherCatV1.24B11,2015-05-24 23:42:00,
2015-05-25 01:47:00,52.3,49.5,30.01,NE,37,0.0,2.0,90,0.00,,,0.00,0,WeatherCatV1.24B11,2015-05-24 23:47:00,
2015-05-25 01:52:00,52.1,49.3,30.01,NE,37,0.0,0.0,90,0.00,,,0.00,0,WeatherCatV1.24B11,2015-05-24 23:52:00,
2015-05-25 01:57:00,52.1,49.5,30.01,NE,36,0.0,0.0,91,0.00,,,0.00,0,WeatherCatV1.24B11,2015-05-24 23:57:00,
2015-05-25 02:02:00,52.1,49.5,30.01,NE,37,0.0,0.0,91,0.00,,,0.00,0,WeatherCatV1.24B11,2015-05-25 00:02:00,
2015-05-25 02:07:00,52.3,49.5,30.01,NE,37,0.0,0.0,90,0.00,,,0.00,0,WeatherCatV1.24B11,2015-05-25 00:07:00,
2015-05-25 02:12:00,52.3,49.5,30.00,NE,37,0.0,0.0,90,0.00,,,0.00,0,WeatherCatV1.24B11,2015-05-25 00:12:00,
2015-05-25 02:17:00,52.2,49.3,30.00,NE,36,0.0,0.0,90,0.00,,,0.00,0,WeatherCatV1.24B11,2015-05-25 00:17:00,
2015-05-25 02:22:00,52.2,49.3,30.00,NE,37,0.0,0.0,90,0.00,,,0.00,0,WeatherCatV1.24B11,2015-05-25 00:22:00,
2015-05-25 02:27:00,52.1,49.3,30.00,NE,37,0.0,0.0,90,0.00,,,0.00,0,WeatherCatV1.24B11,2015-05-25 00:27:00,
2015-05-25 02:32:00,51.9,49.3,30.00,NE,36,0.0,0.0,91,0.00,,,0.00,0,WeatherCatV1.24B11,2015-05-25 00:32:00,
2015-05-25 02:37:00,51.9,49.3,30.00,NE,37,0.0,0.0,91,0.00,,,0.00,0,WeatherCatV1.24B11,2015-05-25 00:37:00,
2015-05-25 02:42:00,51.8,49.3,30.00,NE,36,0.0,0.0,91,0.00,,,0.00,0,WeatherCatV1.24B11,2015-05-25 00:42:00,
2015-05-25 02:47:00,51.7,49.2,30.00,NE,37,0.0,1.0,91,0.00,,,0.00,0,WeatherCatV1.24B11,2015-05-25 00:47:00,
2015-05-25 02:52:00,51.6,49.1,30.00,NE,37,0.0,1.0,91,0.00,,,0.00,0,WeatherCatV1.24B11,2015-05-25 00:52:00,
2015-05-25 02:57:00,51.5,49.2,30.00,NE,37,0.0,0.0,92,0.00,,,0.00,0,WeatherCatV1.24B11,2015-05-25 00:57:00,
2015-05-25 03:02:00,51.4,49.2,30.00,NE,37,0.0,0.0,92,0.00,,,0.00,0,WeatherCatV1.24B11,2015-05-25 01:02:00,
2015-05-25 03:07:00,51.3,49.0,30.00,NE,37,0.0,0.0,92,0.00,,,0.00,0,WeatherCatV1.24B11,2015-05-25 01:07:00,
2015-05-25 03:12:00,51.3,49.0,30.00,NE,37,0.0,0.0,92,0.00,,,0.00,0,WeatherCatV1.24B11,2015-05-25 01:12:00,
2015-05-25 03:17:00,51.3,49.3,30.00,NE,37,0.0,0.0,93,0.00,,,0.00,0,WeatherCatV1.24B11,2015-05-25 01:17:00,
2015-05-25 03:22:00,51.3,49.3,30.00,NE,37,0.0,0.0,93,0.00,,,0.00,0,WeatherCatV1.24B11,2015-05-25 01:22:00,
2015-05-25 03:27:00,51.2,49.2,30.00,NE,37,0.0,0.0,93,0.00,,,0.00,0,WeatherCatV1.24B11,2015-05-25 01:27:00,
2015-05-25 03:32:00,51.1,49.2,30.00,NE,37,0.0,0.0,93,0.00,,,0.00,0,WeatherCatV1.24B11,2015-05-25 01:32:00,
2015-05-25 03:37:00,50.9,49.0,30.00,NE,37,0.0,0.0,93,0.00,,,0.00,0,WeatherCatV1.24B11,2015-05-25 01:37:00,